User: anonymous   Login
Location: Peebles
(55.6412°N, 3.1714°W)
Time: 08:14:40
(UTC+01:00)
Language:

LEMUR 2 ETHANOAKES - Orbit

View from above orbital plane
View from above orbital plane
View from above satellite
View from above satellite

Ground track
Ground track

The orbit data is extracted from the following two-line orbital elements,

1 46298U 20061AC  22176.92345374  .00010161  00000-0  51521-3 0  9999
2 46298  97.4504 248.3250 0002745 132.4726 227.6740 15.17138680 99799
Epoch (UTC): 25 June 2022 22:09:46
Eccentricity: 0.0002745
inclination: 97.4504°
perigee height: 512 km
apogee height: 516 km
right ascension of ascending node: 248.3250°
argument of perigee: 132.4726°
revolutions per day: 15.17138680
mean anomaly at epoch: 227.6740°
orbit number at epoch: 9979

The dashed part of the orbit path shows where the satellite is in the earth's shadow,  

DLR